Volver al catálogo

COSMOS 2597

ActivoMilitarPO
NORAD 66647·PAYLOAD·🇷🇺 Russia

Lanzado Nov 25, 2025 desde Plesetsk Cosmodrome

Loading…

Próximos Pases (próximas 24 horas)

TLE

ActualizadoSource: Space-Track

Época: Sep 14, 2026, 14:10 UTC

1 66647U 25273A   26257.59090078  .00000025  00000-0  10731-3 0  9990
2 66647  82.4965 114.9373 0012602  25.7781 334.3925 12.42901578 36405

Sigue COSMOS 2597 en tiempo real con AllMySat

Download on the App Store